Location: Angwan Shehu
(11.2514°N, 7.4613°E)
Time: 00:03:40
(UTC+00:00)

Explorer 7 - Visible Passes

Search period start: 19 April 2021 00:00
Search period end: 29 April 2021 00:00
Orbit: 484 x 677 km, 50.3° (Epoch: 18 April)

Date Brightness Start Highest point End Pass type
(mag) Time Alt. Az. Time Alt. Az. Time Alt. Az.
19 Apr 9.2 03:16:34 10° N 03:20:39 27° NE 03:24:46 10° ESE visible
19 Apr 8.2 04:57:01 10° WNW 05:01:05 26° SW 05:05:09 10° S visible
20 Apr 8.0 03:23:19 33° N 03:25:07 50° NE 03:29:52 10° SE visible
21 Apr 7.4 03:30:24 61° SSE 03:30:24 61° SSE 03:34:26 10° SE visible
22 Apr 9.1 03:37:12 18° S 03:37:12 18° S 03:38:33 10° SSE visible
